Wind_Speed
7 5 4 2 2 6 7 2 5 7 10 12 10 9 8 7 8 6 7 5 4 3 7 8 10 9 7 7 7 7 7 7 8 7 7 7 7 7 6 6 6 6 6 7 7 7 7 7 7 7 7 7 7 8 8 8 9 10 10 12 14 15 14 13 13 13 11 10 10 10 11 11 11 11 11 11 10 10 9 9 9 9 10 10 10 10
5 4 2 2 1 4 6 3 3 6 12 12 7 8 8 7 7 6 6 6 3 1 6 9 9 8 6 6 6 7 8 8 8 8 8 8 8 7 6 7 7 7 7 7 7 7 6 6 6 6 6 6 7 8 8 9 10 12 13 14 15 15 15 16 15 14 13 11 9 9 9 9 9 9 10 10 10 10 9 10 10 9 9 9 10 10
5 2 5 3 2 5 6 4 3 4 8 10 7 5 7 8 8 6 5 5 2 2 6 9 8 7 6 6 6 7 8 8 8 8 9 9 8 7 7 7 7 8 8 7 7 7 6 6 5 6 6 6 7 8 9 10 12 13 14 14 14 14 16 18 18 16 15 13 11 9 8 8 9 9 10 10 9 9 10 11 11 10 9 9 9 9
2 3 5 2 4 5 6 4 3 2 3 6 6 5 7 9 8 5 6 6 2 3 7 9 7 6 7 7 6 7 7 7 8 7 7 8 8 8 8 7 7 8 8 7 7 6 5 5 5 5 6 7 8 8 9 10 11 12 11 12 13 15 18 21 22 20 17 14 12 11 10 10 9 10 9 9 10 10 11 12 12 12 12 11 10 10
4 6 3 3 5 6 6 6 5 2 2 3 2 4 8 9 6 7 9 8 5 5 8 9 6 5 6 7 7 7 7 8 9 9 8 8 8 8 8 7 7 7 7 7 7 6 5 5 5 5 5 6 7 7 8 9 10 10 10 11 13 16 19 21 23 21 17 14 12 11 11 10 10 10 10 10 10 10 10 11 12 12 12 12 11 11
6 6 1 4 7 7 5 5 5 3 2 3 1 4 10 9 8 13 13 10 7 6 8 9 4 5 7 7 7 8 8 9 11 12 11 10 10 9 9 8 7 6 6 6 6 6 5 5 5 5 5 6 6 6 7 8 8 8 9 11 13 16 18 19 21 21 19 17 14 12 11 11 11 11 12 12 12 11 11 11 11 11 11 11 11 11
5 5 1 3 6 7 6 4 2 3 4 4 3 5 10 9 10 14 13 8 4 4 9 10 3 3 6 8 8 8 8 10 11 13 13 12 11 11 10 9 8 7 6 6 6 6 5 4 4 4 5 5 5 6 6 7 7 8 9 11 12 14 15 16 18 19 19 18 17 15 13 13 12 12 11 12 12 11 10 10 10 10 11 10 10 10
3 3 2 2 4 5 4 2 2 4 5 3 5 6 9 10 10 11 8 5 2 5 9 11 6 1 4 7 9 10 9 10 12 13 14 14 13 12 11 10 9 8 7 7 6 6 6 5 4 5 5 5 5 6 6 6 7 8 9 10 11 12 13 15 15 16 17 17 15 15 13 13 12 12 11 10 11 10 10 11 10 10 10 10 10 10
3 3 3 1 3 3 2 3 3 0 1 5 7 8 8 8 8 7 5 2 3 4 7 9 8 4 3 6 9 10 10 11 13 13 14 15 15 13 12 11 11 9 8 8 7 6 7 6 5 5 6 6 6 6 6 6 7 8 9 9 10 10 11 13 13 13 15 15 14 14 14 13 12 11 10 9 10 10 10 10 10 9 9 10 10 10
4 6 6 3 1 3 6 5 3 2 4 7 9 8 7 6 5 5 4 2 4 4 4 8 9 5 3 6 7 8 10 11 12 12 14 16 16 15 13 12 12 10 9 7 6 6 6 6 5 6 6 6 8 9 8 9 8 8 8 7 7 8 8 10 11 11 12 13 12 13 13 12 12 10 10 9 9 10 9 10 10 10 9 9 9 10
6 5 5 5 4 7 8 6 4 3 8 12 10 8 7 6 4 4 3 3 4 4 3 8 9 4 1 5 7 7 9 11 11 10 13 16 17 16 14 13 12 10 9 7 6 6 6 6 6 7 7 6 8 10 10 9 8 7 7 5 4 6 7 7 8 9 10 12 12 12 11 12 12 11 10 10 10 10 10 9 9 9 9 9 9 10
7 5 4 5 6 9 10 8 7 9 14 11 6 6 5 4 4 3 3 4 4 3 4 5 6 5 3 2 6 9 8 8 10 11 13 16 18 17 15 14 13 11 9 8 7 7 7 7 7 8 8 7 7 8 9 8 6 5 5 4 3 4 5 5 6 7 9 10 11 10 9 10 11 11 11 10 10 10 10 9 9 9 9 9 9 9
6 5 6 7 6 5 5 7 7 7 9 6 5 6 4 3 4 4 4 4 3 3 4 4 5 4 3 2 4 9 10 8 9 11 14 17 18 17 16 15 13 12 11 10 9 9 9 8 8 9 9 8 8 7 7 6 5 4 3 3 2 2 3 4 5 6 6 8 9 9 8 9 10 10 11 11 10 10 9 9 10 10 10 10 10 10
4 5 7 7 5 6 4 2 4 5 5 5 5 5 3 2 3 3 4 3 2 3 4 5 4 4 3 3 3 6 9 9 9 10 13 17 18 18 17 16 14 13 12 11 10 10 9 9 9 10 10 9 9 8 7 7 6 5 3 2 1 1 3 4 4 4 4 5 7 8 8 9 10 11 11 10 10 10 9 9 9 10 10 10 10 10
1 4 6 4 5 7 4 3 0 3 5 4 3 2 2 1 1 1 1 1 2 4 5 5 5 3 2 4 2 2 6 9 9 10 12 15 17 17 17 16 16 15 14 12 11 10 10 10 10 10 10 10 9 9 8 7 7 6 4 3 1 1 2 3 3 3 3 3 6 7 8 9 10 11 11 10 9 9 9 9 9 9 10 10 10 10
1 4 6 4 3 5 2 2 1 3 5 3 1 3 1 3 3 2 2 3 2 2 4 5 3 0 2 4 4 3 7 9 9 11 14 14 16 16 16 17 16 15 14 13 12 11 11 11 11 11 11 11 10 10 9 8 8 7 5 3 2 2 3 3 3 3 3 4 5 7 8 9 11 12 12 10 9 9 9 9 9 9 10 11 12 11
1 5 8 5 4 4 2 3 2 2 1 3 4 2 2 3 5 2 1 1 3 3 3 4 3 3 4 4 5 6 9 10 10 12 15 15 16 16 15 16 16 15 14 14 13 12 13 12 12 12 12 11 11 10 9 9 8 6 5 4 4 4 5 5 4 4 4 5 7 7 7 8 10 13 15 13 10 8 8 8 8 9 9 11 13 14
1 4 8 5 4 5 1 1 4 1 3 1 2 1 1 2 4 2 1 1 3 2 3 3 3 3 4 3 6 9 10 10 10 13 15 15 16 16 15 16 15 15 14 15 14 12 13 13 12 12 12 11 11 10 9 9 8 6 6 6 6 7 6 6 5 5 6 7 9 7 6 8 10 13 14 14 12 9 8 8 8 9 10 12 13 14
2 3 7 4 2 6 4 3 4 3 3 3 2 1 2 3 2 2 2 2 2 2 2 2 1 2 2 3 7 10 11 11 11 13 14 16 17 16 16 16 15 14 14 15 14 13 13 14 13 13 12 12 11 11 9 8 8 8 8 8 8 9 8 7 7 6 7 8 9 8 6 7 9 10 11 12 12 10 8 8 8 9 10 11 12 13
2 1 4 4 2 5 6 6 4 5 5 3 2 2 2 3 2 2 2 3 4 3 1 0 1 2 2 3 8 11 11 12 12 12 13 16 17 16 15 15 15 15 15 15 15 14 14 14 13 13 13 12 11 10 9 9 9 9 10 10 10 10 9 9 8 8 7 8 9 9 7 6 8 8 9 11 12 10 8 8 8 9 10 11 11 12
3 3 2 6 5 4 5 3 2 1 3 4 4 4 3 2 2 3 3 2 3 4 2 2 0 4 4 2 5 9 11 12 12 12 12 15 17 16 15 15 14 15 16 15 14 14 14 14 13 13 13 12 11 10 10 10 10 10 10 11 11 11 10 11 10 9 8 9 11 10 7 7 8 8 8 9 10 9 8 8 8 9 10 10 10 11
2 2 2 5 5 4 3 4 4 5 4 3 3 3 3 2 3 4 3 2 2 3 3 4 3 4 5 1 2 6 9 12 13 13 13 15 15 15 14 14 13 13 14 15 14 13 13 14 14 13 13 12 12 12 11 11 11 11 11 11 12 12 11 11 11 10 9 10 12 12 9 8 7 8 8 9 9 8 8 8 9 9 10 10 10 11
1 2 3 3 2 2 7 6 2 2 2 3 2 3 3 3 4 5 3 0 1 2 2 3 3 3 5 2 1 3 6 10 13 13 13 14 14 14 13 12 13 12 12 13 13 13 14 14 14 14 13 13 13 13 13 14 14 13 13 13 13 13 12 11 11 11 10 11 13 13 10 8 7 7 8 9 9 8 9 9 9 10 10 10 10 11
1 2 3 2 2 4 6 5 3 1 2 3 1 0 3 4 4 5 5 3 3 3 2 4 3 3 4 2 2 3 5 8 11 12 12 13 12 12 11 11 11 11 11 11 12 13 14 14 14 14 14 14 14 13 15 16 15 14 15 14 14 14 13 12 11 11 11 12 13 13 11 9 7 7 8 9 9 9 10 10 10 10 11 11 12 12
3 2 3 3 3 4 5 5 5 4 4 3 1 1 2 3 3 5 4 3 5 3 2 5 3 4 5 3 3 6 7 8 10 11 11 11 11 11 10 10 10 10 10 11 12 14 14 15 15 14 14 15 14 13 14 15 14 14 14 15 14 14 14 13 12 12 12 13 13 12 10 9 8 8 9 10 10 10 10 11 11 11 12 13 13 14
3 1 3 4 3 3 2 0 1 2 2 2 1 1 0 1 1 3 3 4 4 1 2 4 2 5 6 5 5 6 7 8 10 11 11 10 10 9 8 8 8 8 10 11 12 13 14 16 16 15 14 15 14 13 13 13 13 13 14 15 15 15 15 15 14 13 13 13 12 10 9 10 10 10 10 10 11 12 11 11 12 13 13 14 14 16
2 1 1 4 4 4 4 5 4 3 1 3 3 3 2 0 2 4 4 3 2 0 2 1 2 3 5 7 6 6 7 8 9 10 11 10 9 8 7 7 7 7 8 10 12 13 14 16 17 15 15 15 16 16 15 15 14 13 13 15 16 15 15 15 14 13 13 12 10 9 9 11 11 11 11 12 12 13 13 13 13 14 14 15 16 17
3 3 1 3 4 5 6 7 3 3 2 3 4 4 3 1 3 4 3 3 4 3 2 4 2 2 3 6 7 7 7 7 9 9 9 8 7 6 6 6 6 7 8 9 11 13 15 17 17 16 16 17 18 18 17 17 16 16 16 16 16 15 14 14 13 12 11 9 9 9 10 11 11 11 12 13 14 14 14 14 15 15 16 18 19 20
3 2 2 1 4 4 4 4 1 1 3 3 3 4 3 2 0 2 3 4 4 4 3 4 1 2 4 6 7 7 7 7 7 7 6 5 5 5 5 6 7 8 9 10 12 13 15 15 14 15 18 19 19 18 17 17 17 17 19 18 16 15 14 13 12 10 8 7 8 9 9 10 11 12 13 13 14 15 15 16 17 17 19 21 22 24
3 3 4 3 5 5 3 2 1 1 2 2 2 2 2 2 2 4 4 2 3 4 4 2 3 2 3 5 6 6 5 5 5 4 3 4 4 5 5 6 7 7 8 10 11 11 13 13 13 15 18 18 18 18 19 18 16 15 15 15 13 13 12 11 9 7 5 6 8 8 9 10 11 11 13 14 15 16 17 18 19 20 22 25 27 28
2 2 4 4 5 5 4 3 2 3 2 2 2 2 1 1 2 2 3 1 1 2 3 2 4 4 3 4 5 4 3 4 4 3 3 2 2 2 4 5 6 6 7 8 8 8 10 11 12 15 18 18 18 18 17 15 14 12 11 9 8 7 7 7 6 4 4 6 7 8 9 10 11 12 13 14 16 17 18 20 22 24 26 29 32 33
2 2 4 5 4 4 5 3 3 3 4 5 5 4 4 3 2 2 2 1 1 2 3 4 4 4 6 6 5 4 4 4 4 3 2 1 0 1 2 4 5 6 5 5 5 6 7 8 9 12 14 14 12 10 9 8 8 7 6 4 4 3 3 3 2 3 4 6 7 8 10 10 11 13 14 16 18 19 22 24 26 28 29 31 33 34
2 4 4 5 4 4 5 3 2 4 6 5 3 3 4 4 2 1 2 2 2 1 2 2 1 5 6 7 6 6 6 5 3 3 2 2 2 1 3 4 5 4 3 2 3 4 4 4 4 5 5 4 2 1 2 2 1 1 1 2 3 2 1 1 1 3 5 6 7 8 9 11 12 14 16 18 21 24 27 29 28 28 29 30 31 31
3 4 3 3 3 3 6 3 4 6 5 1 3 2 1 3 3 4 3 2 3 4 3 3 3 4 5 6 6 6 6 5 4 4 4 3 2 2 2 2 2 2 3 3 3 3 3 4 5 5 5 4 4 3 3 3 3 3 4 4 3 1 1 1 2 4 5 6 7 9 11 12 14 17 20 22 24 27 28 26 25 27 28 29 31 31
4 3 2 1 2 2 4 4 5 5 1 3 4 2 1 2 3 4 4 3 5 6 4 3 2 3 5 5 4 5 6 6 6 6 5 4 3 2 3 4 5 6 7 7 8 8 8 9 9 8 7 6 5 4 4 5 5 5 5 4 2 2 2 2 3 4 5 7 9 11 13 15 17 20 22 24 25 24 22 21 24 27 29 30 31 30
4 3 3 1 1 1 3 5 4 1 1 4 4 3 2 2 3 4 6 6 7 6 6 6 4 4 5 6 6 6 7 7 6 5 5 5 5 4 4 6 7 7 8 9 10 10 10 10 9 9 8 7 6 6 6 6 5 5 4 3 3 2 2 3 4 5 7 9 11 13 15 17 19 21 23 23 21 19 19 23 27 29 30 30 29 27
3 3 3 2 1 2 4 5 2 3 2 4 4 4 3 2 3 3 5 3 6 6 7 7 6 6 7 7 7 7 7 6 5 6 7 6 7 7 5 6 7 7 8 9 10 11 11 10 10 9 8 7 6 5 5 4 4 3 3 3 3 3 3 4 6 8 9 11 13 15 16 18 19 20 21 20 18 19 23 27 29 28 28 28 26 25
2 2 2 2 2 3 4 4 3 4 3 2 4 5 3 1 1 1 5 3 5 6 6 7 7 8 9 8 9 9 7 5 5 6 10 9 8 8 7 7 7 7 9 10 10 10 10 10 9 7 5 5 4 3 3 2 2 2 2 3 4 5 6 7 8 9 10 12 14 15 17 18 18 18 19 18 20 24 27 28 27 26 26 27 26 25
2 2 2 3 3 4 5 5 3 3 1 3 5 6 5 1 1 2 5 3 6 5 5 7 8 10 11 10 11 10 7 6 4 6 12 11 10 9 7 6 7 8 9 9 9 9 8 7 6 4 4 3 3 3 4 2 1 1 3 4 5 6 7 8 9 10 12 14 15 15 15 16 17 17 20 22 24 27 28 26 25 25 27 29 27 25
4 3 3 4 3 4 4 4 2 2 1 4 5 6 6 3 3 5 5 2 6 4 4 6 9 11 11 11 12 10 6 3 3 9 12 11 10 9 7 7 8 8 8 7 7 7 6 5 4 3 3 3 3 4 5 4 3 3 4 5 5 6 8 10 12 13 13 13 12 11 12 15 18 20 23 25 26 27 27 25 25 27 30 30 28 27
4 3 3 4 4 3 4 5 3 1 3 6 7 8 8 6 4 5 2 4 6 4 4 6 8 11 12 12 11 9 3 5 9 10 11 10 10 10 8 8 8 8 7 6 6 6 5 4 3 3 4 4 4 4 5 5 5 5 6 6 7 8 10 12 13 12 11 9 9 10 13 17 20 23 25 26 26 27 27 26 27 30 30 28 28 27
5 4 3 4 4 3 3 4 4 1 4 7 8 9 8 5 3 1 4 6 6 5 5 6 8 10 12 12 9 5 6 9 8 8 10 10 10 9 9 9 9 8 7 6 6 5 5 5 6 6 6 6 6 6 6 7 7 8 8 9 10 11 11 11 10 9 8 8 10 13 17 21 23 25 26 26 27 27 27 27 29 29 27 26 27 26
3 4 4 4 3 3 3 4 5 3 4 12 12 8 6 5 2 5 6 6 6 6 6 6 8 9 11 12 9 6 9 10 7 7 9 11 10 9 9 9 9 8 7 6 6 6 6 7 8 9 9 9 9 9 9 9 8 9 11 11 11 11 10 8 7 7 8 10 13 17 21 23 24 25 26 27 27 28 26 27 29 27 23 24 26 25
3 3 4 2 3 3 3 3 2 3 8 18 13 4 6 7 2 4 3 4 6 7 7 7 8 10 11 11 10 9 9 9 7 7 9 11 11 10 9 9 9 7 6 5 5 5 6 8 10 11 12 13 12 12 11 9 8 9 10 9 8 7 6 5 6 8 11 14 17 20 22 23 22 24 26 26 26 25 24 24 26 25 22 23 24 24
2 1 3 1 3 3 3 1 3 6 9 18 13 1 4 10 8 4 2 3 6 7 7 7 8 11 12 11 10 10 10 9 9 8 8 10 11 10 10 9 8 6 4 4 6 7 8 10 11 12 14 14 12 10 9 7 7 7 6 4 2 2 4 6 8 11 14 17 20 22 24 24 24 23 24 25 23 21 20 22 23 23 23 23 23 24
1 1 2 2 2 3 4 2 3 2 5 12 13 6 4 8 11 8 4 2 4 6 7 8 8 10 11 11 11 11 10 10 10 9 9 10 10 10 10 9 7 5 4 5 7 8 8 8 8 8 9 9 7 5 4 3 3 3 1 1 2 4 5 8 10 13 16 19 22 25 25 26 25 22 21 22 22 19 18 20 22 24 24 23 23 25
4 5 4 3 2 2 4 5 7 7 7 8 12 13 10 9 11 11 8 5 4 5 7 8 8 9 11 11 11 11 11 11 11 10 10 11 11 11 11 9 7 6 5 6 6 6 6 5 5 5 5 4 2 1 1 1 2 2 3 4 4 6 7 10 12 15 18 21 24 25 24 24 25 22 18 19 21 19 18 20 23 25 25 23 24 26
5 7 6 6 6 5 3 3 6 7 8 7 8 10 11 12 13 12 11 8 8 9 10 11 11 11 11 11 11 11 11 12 13 12 11 12 11 11 10 9 7 6 5 4 3 4 5 5 5 6 5 4 4 4 4 4 4 4 4 5 6 7 9 12 13 16 20 22 23 24 22 19 21 21 18 17 18 18 18 20 23 24 23 22 24 26
6 7 5 5 6 7 6 4 6 6 7 10 11 9 8 9 10 12 14 13 12 12 11 12 13 13 12 11 11 11 12 14 14 13 12 12 12 11 10 9 7 5 3 1 1 3 4 4 5 5 5 6 6 6 5 5 4 4 5 6 7 9 10 13 15 18 22 22 21 21 20 16 16 18 16 16 17 17 17 20 22 23 22 21 22 23
5 6 5 4 6 7 6 6 8 6 5 7 11 10 8 8 8 9 11 13 15 16 14 13 14 15 13 11 12 12 13 14 15 14 12 11 12 12 10 9 7 4 2 1 2 3 3 3 4 5 6 7 8 6 5 4 4 4 6 7 8 9 11 13 16 18 19 19 19 21 19 15 14 16 16 16 17 17 17 19 20 22 23 22 21 21
9 9 6 7 7 5 3 4 7 7 5 3 8 8 7 7 7 7 7 8 12 16 16 14 14 14 13 12 13 14 13 14 16 15 13 11 12 12 11 9 7 5 4 4 4 4 4 5 6 7 8 8 7 5 4 4 4 5 6 7 8 10 11 14 16 16 15 15 17 21 20 15 14 17 17 16 17 17 17 16 16 18 21 22 21 21
Wind_Direction
182 187 183 188 170 161 161 169 6 47 95 105 120 143 147 132 116 115 123 143 186 134 113 112 113 122 127 127 126 133 146 150 151 151 155 158 153 148 143 141 135 122 114 111 106 97 88 85 79 76 75 71 70 72 72 71 71 72 69 67 66 65 64 63 60 58 58 54 49 47 46 45 45 42 37 33 35 32 23 20 14 9 11 9 4 3
207 225 136 79 43 130 130 112 48 83 109 112 129 142 128 117 115 125 132 137 189 144 117 124 120 121 127 131 137 148 159 166 169 170 171 168 157 151 156 153 143 132 127 122 110 99 90 85 82 79 77 76 76 77 77 76 76 76 74 72 71 68 64 61 58 55 54 55 53 51 50 50 48 50 49 42 39 34 24 22 20 14 19 21 14 11
216 196 86 84 102 119 124 125 95 100 122 119 136 147 119 123 124 123 139 143 183 167 136 141 131 126 137 141 147 162 168 168 176 179 172 169 163 162 169 163 153 145 140 133 117 104 95 89 82 78 84 90 90 87 85 81 79 77 76 75 74 72 66 61 58 55 53 53 57 61 62 60 51 46 48 45 43 39 28 27 29 26 30 34 26 22
209 74 63 116 158 154 154 156 135 126 138 133 155 150 125 146 148 133 155 160 162 137 141 151 141 133 147 150 155 171 173 169 180 185 174 175 175 175 180 172 164 157 145 139 127 112 101 95 85 81 89 97 98 96 92 86 82 80 78 79 78 75 70 62 57 54 50 49 51 53 54 56 52 46 45 43 42 39 33 33 35 36 38 39 36 32
79 49 26 185 189 195 181 176 185 191 149 144 164 120 136 164 148 124 146 148 129 126 148 160 148 147 166 171 169 171 180 183 187 190 185 188 189 188 191 182 173 163 149 143 134 124 116 103 88 87 93 97 100 100 94 87 84 82 80 82 80 75 69 62 58 55 52 50 50 49 46 45 45 45 47 45 41 37 36 37 36 37 38 37 37 35
73 46 358 198 197 201 198 191 200 243 191 145 43 108 148 161 128 127 144 145 135 140 170 182 169 154 172 192 183 169 183 189 190 196 193 190 192 197 196 187 179 167 153 145 138 130 123 109 91 91 98 101 100 96 90 86 87 87 86 84 80 74 68 62 59 57 55 54 54 54 51 45 43 44 46 44 40 38 37 37 34 34 35 33 32 31
58 44 29 199 190 190 203 192 155 265 240 146 94 118 141 144 132 141 155 163 148 136 178 201 222 135 166 199 194 179 192 190 188 198 198 191 191 197 195 185 182 175 161 151 145 137 131 125 111 106 107 104 102 98 92 90 94 96 91 86 80 72 66 60 58 56 55 55 54 54 53 50 48 48 48 43 41 43 40 37 34 30 30 29 27 26
47 66 95 152 178 183 195 168 108 266 270 111 127 149 142 141 144 154 173 196 123 112 166 203 243 245 175 192 183 183 201 198 193 200 200 197 195 196 193 186 186 182 165 157 154 151 151 144 128 118 115 113 111 107 101 100 106 104 95 87 80 71 63 58 56 55 55 56 54 53 51 50 48 47 48 42 39 41 38 35 32 29 27 27 26 22
47 53 60 107 192 170 107 63 76 99 31 101 150 161 146 146 154 169 196 210 147 148 171 193 223 239 158 160 169 182 204 209 204 204 202 200 196 194 193 191 191 184 167 159 157 157 153 145 134 125 122 122 118 111 111 112 112 108 99 88 78 69 59 54 54 52 52 55 56 52 49 47 44 42 41 36 32 30 27 22 20 21 19 18 20 16
57 41 39 11 313 99 85 75 75 55 82 127 153 146 137 153 167 188 210 185 174 206 192 174 200 233 147 155 170 185 209 215 208 204 204 201 198 196 194 194 192 182 171 162 153 153 150 145 139 134 135 132 122 115 115 115 114 109 100 90 74 66 59 52 51 49 47 52 54 50 48 43 38 35 31 26 23 18 15 12 10 11 11 9 9 8
88 73 56 32 49 95 98 86 66 83 122 141 152 143 144 160 171 198 206 188 200 215 168 160 187 231 188 164 173 188 212 216 206 199 199 198 197 196 195 195 194 183 173 165 156 154 154 151 149 148 151 148 134 122 119 117 118 115 103 98 81 67 61 52 48 44 41 44 47 46 44 38 33 29 23 18 15 11 9 10 9 8 6 5 4 3
113 110 91 83 101 115 109 92 85 118 137 149 158 150 155 161 172 199 189 199 225 197 135 150 179 216 243 158 169 188 202 211 207 198 192 193 194 192 192 195 193 184 176 171 166 163 164 165 163 165 167 169 159 140 131 129 131 131 117 112 103 67 58 51 43 36 31 33 38 40 36 30 27 23 17 12 9 7 9 10 9 7 5 3 2 0
105 91 108 120 140 160 136 107 109 134 153 174 175 165 177 167 176 203 189 198 217 144 127 159 187 222 243 90 147 187 194 201 207 201 192 190 189 188 190 193 190 185 182 177 174 172 174 176 176 180 183 186 185 170 158 158 160 159 146 137 137 72 49 42 32 27 23 21 26 31 28 22 19 13 10 9 8 7 9 8 7 6 5 2 359 358
115 112 143 150 156 205 236 128 141 166 185 194 178 181 207 175 188 199 180 192 189 127 128 159 192 224 195 118 118 184 191 191 196 199 192 187 187 187 189 191 188 186 185 180 179 178 178 182 184 189 192 194 194 188 182 185 185 185 183 177 170 49 27 24 16 16 17 10 14 21 21 18 13 7 4 4 6 8 9 8 6 6 5 4 1 357
141 123 159 161 137 180 230 344 28 161 169 182 178 223 256 341 308 289 179 187 137 135 139 159 197 233 165 131 116 178 187 186 189 190 184 181 184 186 187 189 188 187 187 183 182 182 182 184 187 193 196 196 196 196 196 197 200 202 205 206 210 332 341 346 342 345 356 355 4 14 16 15 12 9 4 1 2 6 8 8 6 7 6 5 5 0
293 103 123 93 97 172 169 33 274 182 157 154 204 249 298 4 338 338 5 3 10 152 151 170 209 293 93 121 126 164 178 177 181 179 176 175 178 182 186 188 189 190 188 185 185 185 184 185 187 192 196 197 199 200 202 206 209 210 208 220 249 277 292 303 306 313 320 331 351 6 12 12 13 13 11 5 1 2 5 8 7 9 8 10 15 15
253 112 127 128 135 161 70 74 192 232 121 151 204 239 38 358 312 298 94 28 292 254 153 182 219 148 144 142 133 156 164 165 173 175 174 175 175 180 185 187 191 192 188 188 189 188 186 185 187 192 196 199 200 201 206 211 212 216 220 234 258 270 275 284 294 297 298 318 339 353 2 6 11 17 17 13 8 6 4 2 5 10 13 18 25 26
276 120 141 168 151 132 69 98 160 267 325 195 187 64 70 270 276 268 245 200 240 254 125 183 232 174 180 156 141 162 163 161 172 174 174 175 177 182 186 188 191 191 190 191 190 189 189 187 189 194 197 199 201 203 208 213 216 226 236 243 255 265 270 279 287 289 293 310 326 337 348 357 7 17 18 16 15 13 6 1 6 15 20 24 27 27
258 142 142 183 174 139 172 220 169 184 269 305 6 16 253 259 232 210 280 301 293 318 101 153 200 199 207 145 160 178 171 165 170 173 175 177 180 185 187 189 192 191 193 194 192 192 192 190 193 197 199 200 204 206 209 216 223 235 246 250 255 262 268 275 281 287 295 304 315 325 334 345 0 11 12 13 16 11 4 1 3 11 18 23 24 24
232 241 136 156 170 154 185 223 211 178 194 233 264 233 241 294 308 291 307 319 311 315 353 116 137 116 60 119 168 179 172 169 171 173 178 179 182 187 187 189 192 194 196 194 193 195 194 194 195 199 204 205 207 209 213 222 230 239 250 255 259 266 272 278 283 288 290 292 301 311 321 330 347 0 1 7 13 9 360 357 358 2 9 15 16 18
210 263 135 135 153 189 192 205 276 297 188 206 220 216 209 225 272 283 267 264 291 304 320 321 9 92 65 73 161 163 167 174 173 174 177 177 180 185 187 189 191 193 196 194 194 197 198 198 198 202 210 210 211 215 218 227 238 245 254 261 265 270 275 278 281 283 282 285 293 301 309 317 332 348 349 353 3 0 352 349 350 355 1 5 5 8
215 252 174 147 175 202 133 79 11 341 328 296 261 250 249 241 256 266 246 204 246 291 320 315 316 80 85 65 132 146 163 173 173 173 174 174 178 181 184 189 191 194 197 196 196 199 200 202 204 207 212 215 219 223 227 235 243 248 254 262 269 272 274 276 277 276 275 281 289 297 305 312 323 336 337 340 347 346 340 338 338 346 355 354 350 355
319 261 190 164 170 116 91 85 37 357 342 309 299 308 301 270 262 272 280 298 232 268 306 284 280 83 91 77 90 133 155 168 172 171 171 173 175 179 182 188 194 197 201 200 200 202 204 207 209 212 216 221 225 230 237 244 248 253 256 261 270 274 275 276 277 273 271 277 285 292 302 309 313 324 331 333 333 331 330 329 329 335 342 339 337 339
240 246 205 177 140 116 114 129 143 146 232 240 206 338 298 287 285 288 302 328 299 274 268 265 261 108 103 96 120 145 155 165 172 173 174 173 174 179 183 188 196 201 205 206 204 206 209 211 213 216 220 227 231 236 244 250 252 257 263 267 270 273 276 278 277 274 271 275 281 287 299 306 303 314 327 326 323 325 324 321 322 325 327 329 329 326
196 226 213 211 186 177 179 176 172 179 215 246 90 79 303 292 266 265 272 272 268 269 282 280 287 100 114 124 141 159 166 167 172 178 181 179 179 184 188 192 200 205 208 208 207 210 214 216 219 222 225 231 236 239 246 254 256 258 265 271 273 273 275 277 277 277 275 275 278 282 294 303 301 309 320 322 321 323 321 318 318 319 319 321 320 319
200 239 227 249 255 247 261 169 141 163 170 173 93 90 289 234 227 267 259 237 237 192 217 267 316 88 119 142 146 154 165 166 167 177 184 186 189 190 191 198 203 207 210 208 208 213 219 221 224 226 229 234 238 240 246 255 261 262 266 272 276 276 275 276 278 282 282 279 276 277 290 301 304 308 314 317 320 322 321 318 315 315 314 312 311 314
195 137 295 309 332 349 21 63 48 353 97 138 118 116 131 145 289 288 273 266 329 294 216 228 35 86 133 145 146 148 159 160 160 172 180 184 190 192 194 201 204 208 212 210 212 216 221 225 227 228 232 238 243 248 254 259 264 267 267 273 279 280 277 274 276 282 285 281 276 280 295 303 303 306 310 314 319 322 321 316 314 313 311 309 310 311
202 152 69 5 33 31 46 77 60 350 55 105 108 114 122 165 263 286 313 359 347 281 243 81 81 225 142 133 141 144 155 160 160 167 171 175 186 192 198 211 220 222 218 216 219 220 222 227 229 231 235 242 249 256 263 267 270 271 272 275 278 281 280 274 273 281 284 277 275 286 298 302 302 305 308 312 318 322 321 318 315 312 310 311 313 313
250 144 129 97 89 71 68 95 81 18 78 91 92 95 94 113 270 21 52 31 348 321 2 59 135 201 125 133 139 135 148 156 151 155 163 175 194 207 217 229 236 233 227 225 228 227 228 230 231 235 242 247 255 262 268 273 276 276 279 280 276 276 279 275 275 283 281 271 281 293 298 301 302 304 307 311 315 317 318 317 315 312 311 313 313 313
288 117 141 165 132 110 97 114 171 193 151 139 114 91 76 81 59 59 79 64 7 10 24 60 154 150 113 126 123 114 125 134 135 153 180 200 223 238 242 245 247 244 237 234 234 233 233 233 231 238 246 251 257 265 271 277 280 277 278 279 273 270 272 274 281 286 276 277 291 297 299 301 301 303 307 311 312 314 315 316 314 311 310 312 312 311
282 126 158 190 160 129 120 138 187 215 221 200 158 151 173 149 130 114 122 161 265 64 74 121 169 160 130 117 115 115 129 146 159 173 187 218 246 251 252 258 259 257 252 246 241 235 237 240 239 242 248 254 261 269 275 280 281 276 271 268 260 252 255 272 287 286 281 293 299 301 302 302 302 304 308 311 313 315 315 314 312 310 310 312 312 311
218 141 168 210 202 144 140 165 192 217 246 246 220 201 205 206 193 125 120 179 302 75 124 191 203 148 132 139 141 145 161 176 178 165 160 176 178 277 281 281 276 274 270 257 244 235 236 244 250 252 256 263 269 275 280 284 282 276 268 252 225 215 242 271 280 283 296 304 304 304 304 304 305 308 311 313 314 314 313 312 313 312 312 312 312 313
185 164 173 215 219 147 146 176 206 224 241 237 212 199 211 214 213 189 171 195 245 242 195 221 38 85 122 158 167 163 170 177 166 146 130 108 83 14 325 307 297 295 293 265 233 228 228 226 232 242 248 255 263 273 299 313 298 257 153 140 152 175 263 283 284 301 307 305 304 305 306 308 310 311 312 313 313 313 314 314 315 314 314 315 316 317
195 202 178 210 239 150 144 174 222 236 245 196 92 60 283 241 233 232 224 181 194 228 277 349 45 95 144 175 175 165 160 145 126 120 107 92 83 40 25 12 4 35 61 81 113 131 140 137 133 132 130 120 105 89 68 67 84 97 102 105 107 93 14 313 303 307 305 304 306 306 309 312 312 312 313 314 315 316 316 317 317 317 319 320 320 320
180 199 163 194 259 151 143 196 227 236 242 100 103 92 322 281 267 265 271 245 211 221 241 244 193 157 166 171 151 138 137 129 123 126 124 118 113 97 92 96 89 87 88 93 103 108 111 115 115 114 113 106 91 76 68 71 80 86 92 91 75 48 13 328 306 301 303 305 308 310 312 313 312 313 315 317 318 319 319 320 320 322 322 322 322 322
176 180 164 172 260 173 181 210 220 313 57 125 127 120 138 198 216 243 260 233 203 209 221 218 196 162 165 163 144 132 133 136 144 145 138 134 132 127 116 110 106 103 102 104 108 110 112 114 113 111 108 97 85 81 78 75 77 76 75 60 33 9 342 320 306 303 306 308 310 312 313 313 314 316 317 318 320 322 322 322 324 324 324 324 324 324
198 185 173 177 221 242 237 223 229 304 258 179 146 145 170 191 185 227 268 231 177 191 212 211 192 173 168 158 150 149 148 164 188 169 148 145 141 133 122 117 116 113 112 113 113 114 115 113 109 106 104 100 96 93 88 80 72 65 53 33 14 346 321 312 310 310 310 310 312 312 313 315 317 317 317 321 324 325 325 326 327 327 325 325 326 324
229 248 215 202 204 236 266 255 242 260 239 137 98 128 154 10 59 229 275 240 159 173 201 209 198 180 170 161 157 157 162 200 225 163 143 149 147 139 133 127 120 117 119 118 115 114 114 111 109 109 112 118 129 133 126 103 81 51 7 350 334 325 320 314 312 313 311 310 312 313 314 315 317 319 323 328 329 327 328 329 329 328 326 326 326 324
209 251 237 226 192 203 253 264 241 247 253 80 92 127 145 143 123 219 260 217 137 143 192 211 200 181 173 168 162 162 184 231 243 135 140 153 153 147 142 130 127 128 127 125 120 121 124 122 122 130 142 155 176 192 197 196 186 303 332 329 318 315 314 308 308 311 311 311 313 316 317 317 321 326 330 332 330 330 331 331 329 327 326 326 326 325
196 208 215 232 207 189 239 265 263 251 170 106 113 132 139 148 183 228 247 165 107 115 185 202 191 179 172 165 167 180 212 267 57 110 137 154 153 150 145 137 140 140 135 138 145 147 151 155 153 164 191 202 212 220 227 233 239 263 289 299 302 305 300 297 301 307 313 317 321 325 328 327 329 333 333 332 332 331 331 331 328 327 327 327 328 327
200 203 219 249 242 193 221 259 271 237 130 124 129 138 139 148 203 237 246 88 94 111 157 184 182 174 167 165 178 198 190 68 74 109 141 155 153 154 155 150 151 153 153 164 177 179 185 196 202 219 235 237 239 244 249 256 265 275 281 284 290 295 294 297 303 311 320 332 338 336 335 333 333 334 334 333 332 331 331 330 328 329 330 330 331 332
200 197 208 243 251 230 230 256 267 270 125 129 126 130 149 175 220 206 86 82 97 119 135 162 172 169 168 173 184 179 122 106 105 127 151 160 158 160 166 164 165 173 180 189 201 207 217 231 243 252 256 255 255 256 259 264 271 279 284 286 289 294 299 305 315 325 336 347 345 338 337 336 335 335 335 333 332 331 331 330 330 333 335 334 335 336
192 206 209 201 212 235 240 237 257 300 134 145 136 134 187 222 24 76 110 105 108 129 140 152 164 168 172 176 173 147 130 133 133 133 150 165 166 166 173 175 178 186 194 207 224 234 241 251 260 267 270 269 268 266 267 270 274 276 279 284 291 299 307 316 330 345 348 346 343 342 341 341 338 336 335 333 332 333 334 334 336 339 340 337 338 338
182 226 245 188 173 222 237 212 236 42 139 164 164 153 202 206 95 76 148 142 128 145 151 150 163 175 177 174 169 158 150 153 153 146 156 170 174 176 182 184 188 196 206 226 248 263 270 270 273 277 279 278 276 274 274 274 273 273 276 283 295 307 322 340 354 357 350 346 345 345 344 342 339 336 334 334 335 338 340 341 342 343 343 341 341 340
186 230 314 313 182 232 293 17 74 77 146 181 195 159 162 191 181 136 123 136 146 162 165 160 166 178 184 183 177 171 166 162 161 158 163 172 178 183 189 191 194 201 216 251 273 287 289 286 285 284 283 283 282 279 273 265 264 271 277 285 307 351 15 12 2 356 352 349 346 343 340 337 337 337 336 338 344 346 345 345 346 345 345 344 344 343
151 122 314 303 184 234 273 226 157 136 165 192 210 211 173 191 195 185 181 181 166 164 169 172 171 176 187 191 186 184 183 174 168 167 169 173 179 186 192 195 198 210 238 269 286 298 306 308 309 305 297 295 293 284 266 251 257 276 297 77 59 44 31 13 0 354 353 349 343 340 337 335 337 342 343 343 349 351 347 346 347 346 347 348 347 346
172 176 215 240 184 216 240 194 186 206 200 195 214 220 216 215 211 207 213 216 195 183 179 178 177 181 191 197 194 192 189 181 177 177 175 176 182 188 193 198 205 225 255 280 297 314 334 351 2 3 351 346 0 42 106 126 118 95 93 83 59 41 19 6 0 355 349 344 339 338 339 339 342 349 350 347 349 350 347 345 347 349 351 352 349 347
161 176 212 229 217 230 248 164 165 198 203 199 215 220 221 226 224 221 221 215 204 203 195 183 184 189 194 199 199 194 188 185 185 184 180 182 187 189 191 200 215 234 257 285 314 343 11 29 37 44 48 64 90 100 101 103 101 92 84 68 47 28 7 0 359 351 344 341 339 341 345 347 348 351 351 348 348 349 346 344 347 352 355 353 350 350
128 167 201 225 223 235 245 203 174 187 208 213 215 217 218 219 217 221 226 223 215 213 206 196 195 195 195 198 196 190 187 187 187 186 186 188 188 186 190 202 214 227 245 280 355 30 44 45 47 60 78 95 103 103 96 93 90 78 64 45 28 14 1 356 352 344 341 342 344 346 351 352 350 351 351 348 347 348 346 344 345 349 352 352 349 350
165 206 204 207 227 240 244 210 190 207 239 212 200 204 207 201 199 209 221 224 220 216 213 207 202 198 198 200 194 187 187 187 185 188 191 189 187 190 196 201 202 201 197 157 104 89 77 65 68 83 97 100 99 95 87 80 72 55 40 24 12 4 356 353 350 346 345 347 346 348 353 354 350 350 351 348 347 346 346 345 343 342 346 350 351 351
216 238 219 218 242 256 253 193 190 225 261 187 165 182 194 198 210 216 217 224 223 215 210 206 200 199 201 199 190 184 184 187 188 190 189 185 188 194 194 190 186 181 164 137 124 117 105 99 101 102 100 94 90 84 72 60 51 35 22 10 0 356 351 349 349 349 352 352 347 348 354 356 350 349 351 348 347 347 347 347 344 338 340 344 347 351
Height
1523 1524 1524 1522 1522 1524 1526 1527 1525 1522 1525 1535 1543 1552 1553 1549 1554 1556 1554 1555 1552 1552 1556 1557 1561 1566 1567 1568 1569 1571 1572 1572 1573 1574 1575 1576 1577 1578 1579 1579 1580 1580 1581 1581 1581 1581 1580 1579 1579 1578 1578 1577 1577 1576 1576 1576 1576 1575 1575 1574 1572 1572 1572 1572 1571 1571 1570 1570 1569 1568 1567 1566 1566 1565 1564 1563 1563 1562 1561 1561 1560 1559 1559 1558 1558 1557
1524 1523 1521 1520 1520 1520 1523 1526 1526 1525 1530 1541 1546 1546 1548 1550 1556 1557 1555 1556 1553 1554 1560 1560 1562 1567 1568 1569 1570 1571 1572 1572 1573 1574 1575 1576 1577 1578 1579 1580 1580 1580 1581 1581 1581 1581 1581 1580 1580 1579 1579 1578 1578 1578 1578 1577 1577 1577 1576 1575 1574 1574 1573 1573 1572 1571 1570 1570 1570 1569 1568 1568 1567 1566 1565 1564 1564 1563 1562 1561 1561 1560 1559 1559 1559 1558
1524 1521 1522 1522 1521 1522 1526 1526 1527 1528 1529 1540 1546 1543 1547 1553 1556 1558 1556 1555 1553 1555 1560 1560 1563 1569 1569 1569 1571 1571 1571 1572 1573 1574 1575 1576 1577 1578 1579 1579 1580 1580 1581 1581 1581 1581 1581 1581 1580 1580 1580 1579 1579 1579 1579 1579 1578 1578 1577 1576 1576 1575 1575 1574 1573 1572 1571 1570 1569 1569 1568 1568 1567 1566 1566 1565 1564 1564 1563 1562 1561 1561 1560 1559 1559 1558
1525 1522 1524 1525 1524 1525 1528 1528 1529 1530 1528 1534 1540 1541 1547 1551 1552 1558 1559 1556 1554 1554 1559 1560 1562 1567 1568 1569 1571 1572 1572 1572 1574 1575 1575 1576 1577 1578 1579 1579 1580 1580 1580 1580 1581 1581 1581 1581 1581 1581 1580 1580 1580 1580 1580 1580 1579 1579 1578 1578 1577 1577 1576 1574 1573 1572 1571 1570 1569 1569 1569 1568 1568 1567 1567 1566 1565 1564 1564 1563 1562 1561 1560 1559 1559 1558
1525 1526 1526 1525 1526 1526 1529 1531 1530 1530 1531 1533 1533 1537 1547 1548 1545 1552 1556 1555 1555 1557 1559 1559 1563 1567 1567 1568 1569 1570 1572 1572 1573 1574 1575 1576 1577 1578 1579 1579 1580 1579 1580 1580 1580 1581 1581 1581 1581 1581 1581 1581 1581 1581 1581 1580 1580 1580 1580 1579 1579 1578 1576 1575 1574 1573 1572 1572 1571 1571 1570 1570 1569 1568 1567 1567 1566 1565 1564 1564 1563 1562 1561 1560 1559 1559
1525 1528 1527 1525 1526 1526 1528 1530 1529 1529 1531 1535 1535 1535 1543 1545 1544 1550 1554 1554 1561 1568 1560 1556 1566 1568 1564 1566 1566 1567 1570 1571 1572 1573 1574 1575 1576 1577 1578 1578 1579 1579 1579 1580 1580 1581 1581 1581 1581 1581 1581 1582 1582 1581 1581 1581 1581 1582 1581 1580 1580 1578 1577 1576 1575 1574 1574 1573 1572 1572 1571 1571 1570 1569 1568 1567 1566 1566 1565 1564 1563 1562 1562 1561 1560 1559
1526 1527 1526 1526 1526 1527 1529 1529 1530 1530 1529 1535 1539 1536 1538 1543 1546 1551 1551 1550 1559 1566 1558 1555 1566 1568 1565 1565 1563 1564 1567 1567 1570 1571 1571 1573 1575 1576 1577 1577 1578 1578 1579 1580 1580 1580 1581 1581 1582 1582 1582 1582 1582 1582 1582 1582 1582 1582 1582 1581 1580 1579 1578 1577 1577 1576 1575 1574 1573 1573 1572 1571 1571 1570 1569 1568 1567 1567 1566 1565 1564 1563 1562 1561 1560 1559
1528 1528 1527 1526 1525 1526 1529 1530 1533 1531 1529 1536 1539 1538 1540 1543 1548 1550 1549 1547 1548 1553 1556 1556 1559 1563 1565 1562 1559 1563 1566 1565 1567 1568 1569 1571 1573 1574 1575 1576 1577 1578 1578 1579 1580 1580 1581 1582 1582 1582 1582 1582 1582 1582 1583 1583 1583 1583 1582 1582 1581 1580 1579 1578 1578 1577 1576 1576 1575 1574 1573 1572 1572 1571 1570 1569 1568 1568 1567 1566 1565 1564 1563 1562 1561 1560
1529 1528 1529 1527 1526 1527 1530 1532 1533 1531 1533 1539 1539 1538 1541 1543 1547 1548 1547 1547 1544 1550 1560 1558 1554 1558 1561 1557 1556 1562 1565 1565 1564 1564 1566 1568 1570 1573 1574 1575 1576 1577 1578 1579 1580 1580 1581 1582 1582 1582 1583 1583 1583 1583 1583 1583 1583 1583 1582 1582 1581 1580 1580 1579 1579 1578 1577 1577 1576 1575 1574 1573 1573 1572 1571 1570 1569 1568 1568 1567 1566 1564 1563 1562 1561 1560
1530 1530 1530 1527 1527 1530 1533 1534 1533 1533 1536 1540 1539 1540 1542 1544 1545 1546 1547 1547 1548 1554 1557 1553 1551 1556 1560 1557 1558 1563 1564 1562 1560 1560 1562 1565 1568 1571 1572 1574 1575 1576 1578 1578 1579 1580 1580 1581 1582 1583 1583 1583 1583 1583 1583 1583 1583 1583 1582 1582 1582 1581 1581 1580 1580 1579 1578 1578 1577 1576 1575 1574 1574 1573 1572 1571 1570 1569 1568 1567 1566 1565 1564 1563 1561 1560
1531 1531 1531 1530 1532 1532 1534 1535 1534 1535 1536 1539 1541 1541 1544 1545 1544 1546 1544 1544 1554 1560 1552 1546 1547 1553 1562 1558 1553 1558 1558 1554 1554 1556 1559 1562 1565 1568 1571 1573 1574 1575 1577 1578 1579 1580 1580 1581 1582 1583 1583 1583 1584 1583 1583 1583 1583 1583 1582 1582 1582 1582 1581 1581 1580 1580 1579 1578 1578 1577 1576 1575 1574 1573 1572 1571 1570 1569 1568 1567 1566 1565 1564 1563 1561 1560
1530 1532 1533 1534 1536 1534 1535 1537 1537 1537 1537 1539 1540 1541 1548 1550 1548 1550 1548 1548 1561 1563 1550 1544 1545 1552 1561 1553 1545 1549 1550 1548 1550 1551 1555 1559 1562 1566 1569 1571 1573 1574 1576 1577 1579 1580 1580 1581 1582 1583 1583 1583 1584 1583 1583 1584 1583 1583 1583 1582 1583 1582 1582 1582 1581 1580 1580 1579 1578 1577 1577 1576 1575 1574 1573 1572 1570 1569 1568 1567 1566 1565 1564 1562 1561 1560
1530 1533 1535 1537 1538 1535 1534 1537 1541 1541 1538 1539 1539 1543 1554 1558 1558 1561 1558 1555 1558 1555 1547 1544 1547 1553 1553 1544 1540 1544 1545 1546 1548 1549 1552 1557 1560 1564 1567 1570 1571 1573 1575 1577 1578 1579 1580 1581 1582 1583 1583 1583 1584 1584 1583 1583 1583 1583 1583 1583 1583 1583 1582 1582 1581 1581 1580 1580 1579 1578 1577 1576 1575 1574 1573 1572 1570 1569 1568 1567 1566 1564 1563 1562 1561 1560
1536 1538 1535 1536 1538 1535 1533 1535 1543 1543 1539 1538 1538 1542 1552 1559 1566 1568 1561 1556 1555 1551 1545 1543 1549 1554 1548 1541 1541 1541 1543 1546 1548 1549 1552 1555 1559 1563 1566 1568 1571 1572 1575 1576 1577 1579 1580 1581 1582 1583 1583 1583 1583 1583 1583 1583 1583 1583 1583 1583 1583 1583 1582 1582 1582 1581 1581 1580 1579 1578 1577 1576 1576 1574 1573 1572 1570 1569 1568 1567 1565 1564 1563 1562 1560 1559
1538 1543 1536 1534 1536 1535 1534 1534 1536 1537 1536 1536 1533 1535 1542 1547 1556 1561 1555 1553 1553 1550 1547 1548 1552 1550 1546 1546 1544 1541 1543 1545 1547 1550 1552 1555 1559 1562 1565 1567 1570 1572 1573 1575 1576 1577 1579 1580 1581 1582 1582 1583 1583 1583 1583 1583 1583 1583 1583 1583 1583 1583 1582 1582 1582 1581 1581 1580 1579 1578 1577 1576 1575 1574 1573 1572 1570 1568 1567 1566 1565 1564 1562 1561 1560 1559
1532 1538 1533 1533 1534 1533 1535 1534 1532 1533 1537 1538 1534 1536 1540 1538 1541 1550 1551 1549 1548 1547 1549 1551 1548 1540 1540 1545 1542 1542 1545 1544 1547 1550 1551 1556 1558 1560 1564 1566 1568 1570 1572 1574 1575 1576 1578 1579 1580 1581 1581 1582 1582 1582 1582 1582 1582 1582 1583 1583 1582 1582 1582 1582 1582 1581 1581 1580 1579 1578 1577 1576 1575 1574 1573 1571 1570 1568 1567 1566 1565 1563 1562 1561 1559 1558
1531 1536 1532 1533 1536 1533 1535 1535 1533 1535 1538 1539 1539 1540 1538 1534 1536 1545 1552 1551 1549 1551 1549 1545 1542 1537 1540 1544 1541 1542 1545 1544 1547 1549 1550 1555 1557 1559 1563 1564 1567 1569 1570 1573 1574 1575 1577 1578 1579 1580 1580 1580 1581 1581 1581 1581 1582 1582 1582 1582 1582 1581 1582 1581 1581 1581 1580 1579 1578 1578 1577 1576 1575 1574 1572 1571 1569 1568 1567 1566 1565 1563 1562 1561 1559 1558
1528 1535 1534 1532 1535 1535 1536 1536 1535 1535 1536 1537 1540 1538 1534 1536 1537 1539 1549 1553 1551 1552 1547 1541 1541 1540 1542 1547 1545 1542 1544 1545 1546 1548 1550 1553 1556 1559 1561 1563 1566 1567 1569 1571 1572 1574 1576 1577 1578 1579 1579 1579 1579 1580 1581 1580 1580 1581 1580 1581 1581 1581 1581 1581 1581 1580 1579 1578 1578 1577 1576 1576 1574 1573 1572 1571 1569 1568 1567 1566 1565 1563 1562 1561 1559 1558
1525 1534 1536 1532 1534 1536 1536 1537 1538 1537 1535 1535 1537 1534 1536 1544 1543 1539 1547 1552 1551 1552 1548 1540 1539 1538 1537 1542 1545 1543 1543 1545 1545 1547 1550 1552 1555 1558 1560 1562 1564 1566 1568 1570 1571 1573 1574 1575 1577 1577 1578 1578 1578 1579 1579 1579 1579 1579 1579 1579 1579 1579 1579 1579 1579 1579 1578 1578 1577 1576 1576 1575 1574 1573 1572 1571 1569 1568 1567 1566 1565 1564 1562 1561 1559 1558
1524 1532 1538 1533 1532 1535 1535 1536 1538 1537 1536 1536 1536 1534 1536 1541 1541 1539 1541 1544 1547 1551 1548 1543 1541 1537 1531 1532 1537 1540 1540 1542 1544 1546 1547 1550 1554 1556 1558 1561 1563 1564 1567 1568 1570 1572 1572 1574 1575 1576 1576 1577 1577 1578 1578 1578 1578 1578 1578 1578 1578 1578 1578 1578 1578 1578 1578 1577 1576 1576 1575 1575 1574 1573 1572 1570 1569 1568 1567 1566 1565 1564 1562 1561 1559 1558
1524 1529 1536 1535 1534 1536 1535 1533 1532 1532 1533 1535 1537 1537 1537 1537 1537 1538 1537 1535 1540 1546 1547 1548 1546 1537 1531 1530 1531 1534 1537 1539 1542 1544 1546 1549 1552 1555 1557 1559 1561 1562 1564 1566 1568 1569 1571 1572 1573 1574 1575 1575 1576 1577 1577 1577 1577 1577 1577 1577 1577 1577 1577 1577 1577 1577 1577 1576 1575 1575 1575 1574 1573 1572 1571 1570 1569 1568 1567 1566 1564 1563 1562 1561 1559 1558
1525 1526 1531 1535 1535 1533 1531 1530 1531 1531 1530 1531 1532 1532 1533 1534 1536 1543 1543 1534 1533 1539 1542 1547 1548 1538 1532 1533 1532 1531 1535 1537 1540 1543 1546 1548 1551 1553 1556 1558 1559 1561 1562 1564 1566 1568 1569 1570 1571 1573 1573 1574 1575 1575 1575 1576 1576 1576 1576 1576 1575 1575 1576 1576 1576 1576 1576 1575 1574 1574 1574 1573 1572 1571 1570 1569 1568 1567 1566 1565 1564 1563 1562 1560 1559 1558
1525 1524 1528 1532 1530 1528 1531 1533 1534 1534 1532 1531 1531 1530 1530 1531 1534 1542 1545 1538 1534 1537 1537 1539 1544 1540 1534 1534 1534 1533 1535 1536 1539 1543 1545 1547 1550 1552 1554 1556 1558 1559 1561 1563 1565 1566 1568 1569 1570 1571 1572 1572 1573 1573 1574 1574 1574 1575 1574 1574 1574 1574 1574 1574 1574 1574 1574 1574 1573 1573 1572 1572 1571 1571 1570 1569 1568 1567 1566 1565 1564 1562 1561 1560 1559 1557
1527 1525 1528 1532 1528 1527 1531 1533 1534 1534 1533 1532 1532 1532 1533 1533 1533 1535 1537 1536 1537 1537 1536 1539 1544 1542 1536 1535 1536 1536 1537 1538 1540 1542 1544 1547 1549 1551 1553 1555 1557 1558 1559 1561 1563 1564 1566 1567 1568 1569 1570 1571 1571 1572 1572 1572 1573 1573 1573 1573 1573 1573 1573 1573 1573 1573 1573 1572 1572 1572 1571 1571 1570 1570 1569 1568 1568 1566 1565 1564 1563 1562 1560 1559 1558 1557
1528 1526 1529 1535 1537 1537 1537 1535 1536 1536 1534 1531 1531 1534 1536 1534 1535 1536 1533 1535 1539 1537 1536 1541 1543 1539 1535 1535 1536 1537 1538 1539 1541 1543 1545 1547 1549 1551 1552 1554 1556 1557 1558 1559 1561 1562 1564 1565 1566 1567 1569 1569 1570 1571 1570 1570 1571 1571 1571 1571 1571 1571 1571 1571 1571 1571 1571 1571 1571 1570 1570 1570 1570 1569 1568 1567 1567 1565 1564 1563 1562 1561 1559 1558 1557 1555
1527 1527 1528 1534 1540 1542 1540 1538 1538 1534 1531 1532 1534 1536 1537 1535 1537 1538 1534 1535 1540 1537 1535 1539 1539 1535 1534 1535 1535 1537 1538 1540 1542 1544 1546 1547 1549 1550 1552 1554 1555 1556 1557 1558 1559 1560 1561 1563 1564 1566 1567 1567 1568 1569 1569 1569 1570 1570 1570 1570 1569 1570 1570 1569 1569 1569 1569 1570 1569 1570 1570 1569 1569 1568 1567 1567 1565 1564 1563 1562 1561 1560 1558 1557 1556 1554
1526 1528 1530 1531 1532 1535 1535 1535 1536 1532 1531 1535 1537 1537 1538 1537 1537 1536 1533 1534 1536 1536 1535 1535 1535 1536 1536 1535 1535 1537 1538 1540 1542 1544 1545 1547 1548 1550 1552 1553 1554 1554 1556 1557 1558 1559 1560 1560 1562 1564 1565 1566 1566 1567 1567 1568 1568 1568 1568 1568 1567 1568 1568 1568 1568 1568 1568 1568 1568 1569 1569 1568 1568 1567 1566 1565 1564 1563 1562 1561 1559 1558 1557 1556 1554 1552
1525 1530 1534 1534 1533 1534 1533 1534 1536 1534 1533 1535 1536 1537 1538 1538 1538 1536 1536 1536 1535 1536 1537 1535 1535 1538 1536 1533 1535 1537 1538 1540 1541 1542 1544 1546 1548 1550 1551 1551 1552 1553 1554 1555 1556 1557 1558 1559 1560 1562 1563 1563 1564 1565 1565 1566 1566 1567 1566 1566 1566 1566 1566 1566 1566 1567 1567 1567 1567 1567 1567 1567 1566 1566 1565 1564 1563 1561 1560 1559 1558 1556 1555 1554 1552 1550
1523 1530 1535 1535 1536 1537 1535 1536 1537 1535 1534 1534 1534 1536 1537 1537 1537 1536 1538 1538 1535 1537 1540 1537 1536 1537 1534 1533 1534 1536 1538 1539 1540 1542 1544 1546 1547 1549 1550 1551 1551 1552 1553 1554 1555 1555 1556 1558 1559 1560 1561 1562 1563 1564 1564 1564 1565 1565 1564 1564 1564 1564 1564 1565 1565 1566 1566 1566 1566 1566 1566 1565 1565 1564 1564 1563 1561 1560 1559 1557 1556 1555 1553 1552 1550 1548
1524 1531 1536 1534 1535 1538 1536 1537 1537 1535 1535 1534 1534 1535 1535 1536 1536 1536 1538 1538 1537 1539 1539 1537 1538 1537 1533 1533 1535 1537 1539 1540 1542 1544 1545 1545 1547 1547 1548 1549 1550 1550 1551 1552 1553 1554 1555 1556 1558 1559 1560 1560 1562 1562 1562 1563 1563 1563 1563 1562 1562 1563 1563 1563 1564 1565 1565 1565 1565 1565 1564 1564 1564 1563 1562 1561 1560 1559 1557 1556 1555 1553 1551 1549 1548 1546
1526 1533 1537 1531 1533 1538 1537 1536 1536 1534 1534 1534 1534 1534 1535 1536 1537 1537 1538 1539 1539 1539 1538 1538 1539 1537 1534 1535 1537 1539 1541 1541 1542 1544 1544 1545 1546 1547 1548 1548 1548 1549 1550 1550 1552 1553 1554 1555 1556 1557 1558 1559 1560 1561 1561 1561 1561 1561 1561 1561 1561 1561 1562 1563 1563 1563 1564 1564 1564 1564 1563 1563 1563 1562 1561 1560 1559 1557 1556 1554 1553 1551 1549 1546 1544 1542
1525 1534 1536 1531 1534 1538 1536 1536 1536 1534 1533 1534 1533 1533 1534 1535 1536 1535 1536 1537 1537 1538 1540 1539 1536 1533 1534 1536 1538 1540 1541 1541 1542 1543 1544 1545 1546 1547 1547 1548 1548 1548 1549 1550 1551 1552 1552 1554 1555 1556 1557 1558 1559 1559 1560 1560 1559 1559 1559 1559 1560 1561 1562 1562 1562 1563 1563 1563 1563 1563 1563 1562 1561 1560 1559 1558 1557 1555 1554 1552 1550 1548 1546 1543 1541 1538
1524 1530 1532 1531 1534 1536 1535 1536 1535 1534 1537 1537 1532 1530 1531 1532 1533 1534 1535 1536 1536 1536 1537 1536 1531 1531 1534 1536 1537 1539 1540 1541 1542 1543 1544 1545 1546 1547 1547 1547 1548 1548 1548 1549 1550 1551 1552 1552 1554 1554 1555 1557 1558 1558 1559 1558 1558 1558 1558 1559 1560 1560 1561 1561 1561 1562 1562 1562 1562 1562 1562 1561 1560 1559 1558 1556 1555 1553 1551 1549 1547 1545 1542 1540 1537 1535
1525 1525 1526 1528 1532 1536 1535 1534 1535 1541 1544 1539 1531 1529 1531 1531 1532 1534 1533 1533 1534 1533 1533 1532 1531 1533 1535 1535 1536 1537 1539 1540 1542 1543 1545 1546 1546 1547 1548 1548 1548 1548 1548 1548 1549 1550 1551 1552 1553 1554 1555 1556 1557 1557 1558 1558 1558 1558 1558 1559 1560 1560 1561 1561 1561 1561 1561 1562 1561 1561 1560 1559 1558 1557 1556 1554 1552 1550 1548 1546 1544 1541 1539 1537 1535 1532
1526 1525 1527 1528 1530 1533 1533 1535 1546 1550 1541 1531 1530 1532 1533 1532 1532 1533 1532 1531 1532 1533 1532 1533 1533 1534 1535 1536 1536 1538 1539 1542 1543 1544 1545 1546 1547 1548 1548 1548 1549 1549 1549 1549 1549 1550 1551 1552 1553 1554 1555 1556 1557 1557 1558 1558 1558 1558 1559 1559 1560 1560 1560 1560 1561 1561 1561 1561 1560 1559 1559 1558 1557 1555 1553 1552 1550 1547 1545 1543 1541 1539 1537 1534 1532 1530
1525 1527 1529 1530 1532 1534 1535 1540 1548 1544 1529 1526 1532 1533 1533 1534 1534 1535 1534 1530 1528 1531 1532 1531 1532 1533 1535 1537 1538 1539 1541 1542 1543 1545 1546 1546 1547 1548 1548 1549 1550 1550 1550 1550 1551 1551 1552 1553 1554 1555 1555 1556 1557 1558 1558 1558 1559 1559 1559 1559 1560 1560 1560 1560 1561 1560 1560 1560 1559 1558 1557 1556 1554 1553 1551 1549 1547 1545 1543 1541 1539 1536 1534 1531 1529 1527
1524 1525 1527 1533 1537 1536 1535 1535 1535 1533 1529 1528 1530 1530 1530 1531 1531 1533 1534 1528 1525 1528 1530 1529 1530 1533 1535 1537 1538 1540 1541 1542 1542 1543 1545 1546 1547 1548 1549 1549 1550 1550 1551 1551 1552 1552 1553 1554 1554 1555 1555 1556 1557 1558 1558 1558 1559 1559 1559 1560 1560 1560 1560 1560 1560 1559 1559 1558 1558 1557 1555 1554 1552 1550 1548 1547 1545 1543 1541 1539 1536 1534 1531 1529 1527 1525
1525 1524 1525 1532 1537 1535 1534 1534 1534 1538 1538 1530 1525 1527 1528 1529 1528 1529 1531 1528 1524 1525 1528 1528 1529 1532 1534 1536 1538 1539 1542 1541 1537 1538 1543 1546 1547 1548 1549 1549 1550 1551 1551 1552 1552 1553 1553 1554 1555 1555 1556 1557 1557 1558 1558 1558 1559 1559 1559 1560 1560 1560 1560 1559 1559 1558 1558 1557 1556 1554 1553 1551 1550 1548 1547 1545 1543 1541 1538 1536 1534 1531 1529 1527 1525 1523
1526 1525 1523 1528 1534 1535 1536 1537 1537 1540 1536 1526 1524 1527 1529 1530 1529 1529 1532 1529 1523 1524 1528 1527 1528 1531 1532 1535 1537 1538 1540 1537 1532 1534 1542 1546 1546 1548 1549 1549 1550 1551 1551 1552 1553 1553 1554 1554 1555 1556 1556 1556 1557 1557 1557 1558 1558 1559 1559 1559 1559 1559 1558 1558 1557 1557 1556 1555 1553 1552 1551 1549 1548 1547 1545 1543 1541 1539 1536 1534 1532 1530 1527 1525 1523 1521
1526 1525 1524 1528 1530 1532 1535 1534 1530 1530 1528 1524 1525 1528 1529 1529 1529 1533 1538 1532 1522 1524 1528 1526 1528 1530 1531 1534 1537 1537 1537 1533 1529 1534 1542 1545 1546 1548 1548 1549 1550 1551 1552 1553 1553 1553 1554 1555 1555 1556 1556 1556 1556 1556 1557 1557 1557 1558 1558 1558 1558 1557 1557 1556 1556 1555 1554 1553 1552 1551 1549 1548 1546 1545 1543 1541 1539 1537 1534 1532 1530 1528 1525 1523 1521 1519
1525 1525 1527 1528 1527 1528 1533 1534 1527 1523 1522 1523 1525 1527 1528 1531 1533 1536 1536 1527 1521 1525 1527 1526 1528 1530 1531 1534 1535 1533 1534 1535 1535 1538 1543 1544 1546 1547 1548 1549 1550 1551 1552 1553 1553 1553 1554 1555 1555 1556 1556 1556 1556 1556 1556 1557 1557 1557 1557 1556 1556 1556 1555 1555 1554 1553 1553 1552 1551 1550 1548 1547 1545 1543 1541 1539 1537 1535 1533 1531 1528 1526 1523 1521 1519 1516
1526 1527 1529 1529 1527 1525 1527 1530 1528 1523 1522 1523 1526 1528 1529 1532 1532 1529 1524 1522 1523 1526 1526 1527 1529 1529 1531 1534 1534 1533 1535 1537 1539 1541 1542 1544 1546 1547 1548 1549 1550 1551 1551 1552 1552 1553 1554 1554 1554 1555 1555 1555 1555 1555 1556 1556 1556 1556 1556 1555 1555 1554 1554 1553 1553 1552 1552 1551 1550 1549 1547 1545 1543 1542 1540 1537 1535 1533 1531 1529 1526 1524 1522 1519 1517 1514
1521 1524 1525 1524 1525 1525 1527 1532 1533 1528 1522 1522 1525 1528 1529 1528 1524 1520 1520 1523 1525 1525 1526 1528 1529 1529 1531 1533 1534 1535 1537 1538 1540 1541 1542 1544 1545 1546 1548 1549 1549 1551 1551 1551 1552 1553 1553 1553 1554 1553 1554 1554 1554 1554 1554 1555 1555 1555 1554 1554 1553 1553 1553 1552 1552 1551 1551 1550 1549 1548 1546 1544 1542 1540 1538 1536 1533 1531 1529 1527 1525 1523 1521 1518 1515 1513
1517 1520 1519 1516 1519 1524 1528 1529 1526 1520 1518 1520 1521 1522 1523 1522 1521 1520 1522 1523 1524 1525 1527 1527 1528 1530 1531 1532 1534 1536 1537 1539 1540 1541 1542 1544 1545 1546 1547 1548 1549 1550 1550 1551 1552 1552 1552 1553 1552 1552 1553 1552 1553 1553 1553 1553 1553 1553 1553 1552 1552 1552 1552 1551 1551 1551 1550 1549 1548 1547 1545 1543 1541 1539 1536 1534 1532 1530 1528 1526 1524 1522 1520 1517 1515 1512
1515 1516 1517 1515 1515 1517 1518 1517 1515 1514 1516 1519 1519 1518 1519 1521 1522 1522 1522 1522 1524 1526 1526 1526 1528 1529 1530 1532 1534 1535 1537 1538 1540 1540 1542 1543 1544 1546 1547 1547 1548 1549 1550 1550 1551 1551 1551 1551 1551 1551 1551 1550 1551 1551 1551 1552 1552 1551 1551 1551 1551 1551 1551 1551 1551 1550 1550 1548 1547 1545 1544 1542 1540 1538 1535 1533 1532 1530 1528 1526 1523 1521 1519 1517 1514 1511
1514 1516 1517 1515 1514 1515 1515 1514 1515 1516 1517 1518 1518 1519 1520 1520 1521 1522 1523 1523 1524 1525 1525 1527 1528 1529 1530 1532 1533 1534 1536 1537 1539 1540 1542 1542 1544 1545 1546 1547 1548 1548 1549 1550 1550 1550 1550 1550 1550 1550 1549 1549 1549 1549 1550 1550 1550 1550 1551 1551 1551 1551 1551 1551 1551 1550 1549 1547 1546 1544 1542 1540 1539 1537 1535 1533 1531 1530 1528 1526 1523 1521 1518 1516 1513 1510
1513 1516 1516 1514 1515 1517 1515 1512 1513 1515 1516 1517 1518 1518 1519 1520 1520 1521 1522 1523 1524 1525 1525 1526 1527 1528 1530 1531 1532 1534 1535 1536 1538 1539 1541 1542 1543 1544 1545 1546 1547 1548 1548 1549 1549 1549 1549 1549 1549 1549 1548 1548 1549 1549 1549 1550 1550 1550 1551 1551 1551 1551 1551 1551 1550 1549 1548 1546 1545 1543 1541 1539 1537 1536 1535 1533 1531 1530 1528 1526 1523 1520 1518 1515 1512 1509
1512 1515 1515 1513 1513 1515 1513 1510 1511 1514 1515 1515 1517 1517 1517 1518 1519 1520 1521 1522 1523 1524 1524 1525 1526 1528 1528 1529 1531 1533 1534 1535 1537 1538 1539 1541 1542 1543 1544 1545 1546 1546 1547 1547 1548 1548 1548 1548 1549 1548 1548 1548 1549 1549 1550 1550 1550 1551 1551 1551 1551 1551 1550 1550 1549 1548 1547 1546 1544 1542 1540 1538 1537 1535 1534 1533 1531 1529 1528 1525 1522 1520 1518 1515 1512 1509
1512 1514 1512 1510 1511 1511 1509 1509 1511 1513 1513 1513 1514 1515 1516 1516 1517 1518 1519 1520 1521 1522 1523 1524 1525 1526 1527 1529 1530 1531 1532 1534 1536 1537 1538 1540 1541 1542 1543 1544 1545 1546 1546 1547 1547 1548 1548 1548 1548 1548 1548 1549 1549 1550 1550 1550 1551 1551 1551 1551 1551 1550 1550 1549 1548 1547 1546 1545 1543 1541 1540 1538 1537 1535 1534 1533 1531 1529 1527 1524 1522 1520 1519 1516 1513 1510
1511 1510 1508 1510 1512 1510 1507 1506 1509 1511 1510 1509 1511 1513 1514 1515 1516 1517 1517 1518 1519 1521 1522 1523 1524 1525 1526 1527 1528 1530 1531 1533 1534 1536 1537 1539 1540 1541 1542 1543 1544 1545 1545 1546 1547 1548 1548 1549 1548 1548 1549 1549 1550 1550 1550 1551 1551 1551 1551 1551 1551 1550 1550 1549 1548 1547 1545 1544 1542 1541 1539 1538 1537 1535 1534 1532 1530 1529 1527 1524 1521 1519 1518 1516 1513 1511
1508 1506 1505 1507 1508 1506 1504 1504 1507 1508 1507 1508 1510 1512 1513 1514 1514 1515 1516 1516 1517 1518 1520 1521 1522 1524 1525 1526 1527 1529 1530 1532 1533 1534 1536 1537 1539 1540 1541 1542 1543 1544 1545 1546 1547 1548 1548 1548 1548 1549 1549 1549 1550 1550 1550 1551 1551 1551 1551 1551 1550 1550 1549 1549 1548 1547 1545 1543 1542 1539 1538 1538 1536 1535 1533 1532 1530 1528 1526 1524 1522 1519 1517 1515 1512 1510